Regional Weather Roundup
Issued by NWS

Home | Current Version | Previous Version | Text Only | Print | Product List | Glossary Off
Versions: 1 2 3 4 5 6 7 8 9 10 11 12 13 14 15 16 17 18 19 20 21 22 23 24 25 26 27

000
ASUS45 KPSR 300610
RWRAZ

ARIZONA HOURLY REGIONAL WEATHER ROUNDUP
NATIONAL WEATHER SERVICE PHOENIX AZ
1100 PM MST MON AUG 29 2016

NOTE: FAIR INDICATES FEW OR NO CLOUDS BELOW 12,000 FEET WITH NO
SIGNIFICANT WEATHER AND/OR OBSTRUCTIONS TO VISIBILITY.

AZZ001>003-036-300700-
NORTHWEST ARIZONA

CITY           SKY/WX    TMP DP  RH WIND       PRES   REMARKS
BULLHEAD CITY  CLEAR     95  39  14 NE5       29.80R
KINGMAN        CLEAR     77  46  33 SE9       30.06R
6HR MIN TEMP:  77; 6HR MAX TEMP:  97;

$$

AZZ004>008-015-016-018-300700-
NORTH CENTRAL ARIZONA

CITY           SKY/WX    TMP DP  RH WIND       PRES   REMARKS
GRAND CANYON   CLEAR     51  45  79 CALM      30.34R
6HR MIN TEMP:  50; 6HR MAX TEMP:  80;

PRESCOTT       CLEAR     65  50  58 CALM      30.19S
6HR MIN TEMP:  64; 6HR MAX TEMP:  85;

FLAGSTAFF      CLEAR     50  45  83 CALM      30.35S
6HR MIN TEMP:  50; 6HR MAX TEMP:  73;

PAYSON         CLEAR     70  39  32 CALM      30.22R
PAGE           CLEAR     74  40  29 S3        30.14R
6HR MIN TEMP:  73; 6HR MAX TEMP:  91;

$$

AZZ009>014-017-300700-
NORTHEAST ARIZONA

CITY           SKY/WX    TMP DP  RH WIND       PRES   REMARKS
WINSLOW        CLEAR     62  49  62 CALM      30.20R
6HR MIN TEMP:  62; 6HR MAX TEMP:  86;

SAINT JOHNS    PTCLDY    68  43  40 SE8       30.25R
6HR MIN TEMP:  67; 6HR MAX TEMP:  82;

WINDOW ROCK    CLEAR     57  40  52 SW3       30.36R
6HR MIN TEMP:  57; 6HR MAX TEMP:  80;

SHOW LOW       CLEAR     55  39  54 CALM      30.30S
$$

AZZ023-300700-
GREATER PHOENIX AREA

CITY           SKY/WX    TMP DP  RH WIND       PRES   REMARKS
PHOENIX        CLEAR     95  46  18 N5        29.82R
6HR MIN TEMP:  95; 6HR MAX TEMP: 105;

BUCKEYE        CLEAR     86  41  20 NE6       29.84S
LUKE AFB       CLEAR     89  50  26 N6        29.82S
6HR MIN TEMP:  89; 6HR MAX TEMP: 105;

DEER VALLEY    CLEAR     91  42  18 N5        29.86R
6HR MIN TEMP:  90; 6HR MAX TEMP: 104;

SCOTTSDALE     CLEAR     92  43  18 CALM      29.87S
6HR MIN TEMP:  90; 6HR MAX TEMP: 103;

MESA-GATEWAY   CLEAR     84  43  23 VRB5      29.86S
$$

AZZ027-028-300700-
SOUTHWEST MARICOPA COUNTY AND PINAL COUNTY

CITY           SKY/WX    TMP DP  RH WIND       PRES   REMARKS
CASA GRANDE    CLEAR     84  36  17 CALM      29.88R
6HR MIN TEMP:  82; 6HR MAX TEMP: 102;

GILA BEND      CLEAR     88  38  17 SE8       29.80R
6HR MIN TEMP:  87; 6HR MAX TEMP: 104;

$$

AZZ503-504-507>509-300700-
SOUTHEAST ARIZONA

CITY           SKY/WX    TMP DP  RH WIND       PRES   REMARKS
TUCSON         PTCLDY    85  42  22 S5        29.98R
6HR MIN TEMP:  84; 6HR MAX TEMP:  99;

DAVIS-MONTHAN  PTCLDY    82  45  27 SE9       29.97R
6HR MIN TEMP:  81; 6HR MAX TEMP:  97;

NOGALES        PTCLDY    77  46  33 VRB3      30.07R
6HR MIN TEMP:  75; 6HR MAX TEMP:  93;

SIERRA VISTA   CLEAR     75  50  40 S9        30.14S
6HR MIN TEMP:  75; 6HR MAX TEMP:  90;

DOUGLAS        PTCLDY    77  51  40 E10       30.11R
6HR MIN TEMP:  76; 6HR MAX TEMP:  90;

SAFFORD        CLEAR     81  46  29 SE8       30.03R
6HR MIN TEMP:  81; 6HR MAX TEMP:  95;

$$

AZZ020-021-025-026-031-300700-
SOUTHWEST ARIZONA

CITY           SKY/WX    TMP DP  RH WIND       PRES   REMARKS
YUMA           PTCLDY    95  48  20 W7        29.75S
6HR MIN TEMP:  95; 6HR MAX TEMP: 110;

$$

CAZ031-033-041-043-047-048-061-300700-
SOUTHERN CALIFORNIA

CITY           SKY/WX    TMP DP  RH WIND       PRES   REMARKS
DOWNTOWN L.A.  CLEAR     71  60  68 CALM      29.87S
6HR MIN TEMP:  70; 6HR MAX TEMP:  82;

L.A. AIRPORT   CLEAR     71  62  73 S3        29.88R
6HR MIN TEMP:  70; 6HR MAX TEMP:  75;

SAN DIEGO      MOCLDY    70  66  87 W5        29.90S
6HR MIN TEMP:  70; 6HR MAX TEMP:  77;

BURBANK        CLEAR     73  58  59 E8        29.89R
6HR MIN TEMP:  72; 6HR MAX TEMP:  94;

ONTARIO        CLEAR     78  57  48 N5        29.90S
6HR MIN TEMP:  77; 6HR MAX TEMP:  96;

RIVERSIDE      CLEAR     79  60  52 CALM      29.90S
6HR MIN TEMP:  79; 6HR MAX TEMP:  96;

PALM SPRINGS   CLEAR     97  44  16 NW6       29.80S
6HR MIN TEMP:  97; 6HR MAX TEMP: 111;

EL CENTRO NAS  CLEAR     91  47  21 W7        29.76S
6HR MIN TEMP:  90; 6HR MAX TEMP: 109;

IMPERIAL       CLEAR     91  52  26 W5        29.73S
6HR MIN TEMP:  91; 6HR MAX TEMP: 111;

BLYTHE         CLEAR     97  43  15 W5        29.76S
6HR MIN TEMP:  97; 6HR MAX TEMP: 109;

NEEDLES        PTCLDY    97  43  15 NW8       29.81R
6HR MIN TEMP:  96; 6HR MAX TEMP: 112;

$$

NVZ020-UTZ003-300700-
SOUTHERN NEVADA-UTAH

CITY           SKY/WX    TMP DP  RH WIND       PRES   REMARKS
LAS VEGAS      CLEAR     90  32  12 SW5       29.91S
6HR MIN TEMP:  90; 6HR MAX TEMP: 104;

SALT LAKE CITY PTCLDY    73  36  25 S13       30.13S
$$

NMZ009-TXZ055-300700-
NEW MEXICO-WEST TEXAS

CITY           SKY/WX    TMP DP  RH WIND       PRES   REMARKS
ALBUQUERQUE    PTCLDY    64  51  62 E15G22    30.32R
6HR MIN TEMP:  64; 6HR MAX TEMP:  76;

EL PASO        PTCLDY    73  60  63 E6        30.18S
6HR MIN TEMP:  73; 6HR MAX TEMP:  85;

$$


........................KEY........................
SKY/WX - SKY CONDITION/WEATHER
TMP    - TEMPERATURE IN FAHRENHEIT
DP     - DEW POINT IN FAHRENHEIT
RH     - RELATIVE HUMIDITY IN PERCENT
WIND   - DIRECTION AND SPEED IN MILES PER HOUR (MPH)
VRB    - VARIABLE WIND DIRECTION
PRES   - MEAN SEA LEVEL PRESSURE IN INCHES OF MERCURY
         F - FALLING PRESSURE   R - RISING PRESSURE
         S - STEADY PRESSURE
VSB    - VISIBILITY IN MILES
HX     - HEAT INDEX IN FAHRENHEIT
WCI    - WIND CHILL INDEX IN FAHRENHEIT
TC     - TEMPERATURE IN CELSIUS WHICH IS ALSO KNOWN AS
         TEMPERATURE IN CENTIGRADE
AFB    - AIR FORCE BASE
         LUKE AFB IS LUKE AIR FORCE BASE
         DAVIS-MONTHAN IS DAVIS-MONTHAN AIR FORCE BASE
NAS    - NAVAL AIR STATION
         EL CENTRO NAS IS EL CENTRO NAVAL AIR STATION
N/A    - NOT AVAILABLE





USA.gov is the U.S. government's official web portal to all federal, state and local government web resources and services.